User: anonymous   Login
Location: The Top Of The Sky Mini Observatory
(41.4300°N, 81.2300°W)
Time: 15:14:07
(UTC-04:00)
Language:

Iridium 86 - Orbit

View from above orbital plane
View from above orbital plane
View from above satellite
View from above satellite

Ground track
Ground track

The orbit data is extracted from the following two-line orbital elements,

1 25528U 98066B   16209.27096618  .00000184  00000-0  58553-4 0  9991
2 25528  86.3983 125.6748 0002224  78.7020 281.4425 14.34216296932792
Epoch (UTC): 27 July 2016 06:30:11
Eccentricity: 0.0002224
inclination: 86.3983°
perigee height: 776 km
apogee height: 779 km
right ascension of ascending node: 125.6748°
argument of perigee: 78.7020°
revolutions per day: 14.34216296
mean anomaly at epoch: 281.4425°
orbit number at epoch: 93279

The dashed part of the orbit path shows where the satellite is in the earth's shadow,  

DLR